User: anonymous   Login
Location: Cicognara
(44.9500°N, 10.4667°E)
Time: 12:32:03
(UTC+00:00)
Language:

SL-4 R/B - Orbit

View from above orbital plane
View from above orbital plane
View from above satellite
View from above satellite

Ground track
Ground track

The orbit data is extracted from the following two-line orbital elements,

1 39679U 14021B   21298.22467702  .00000985  00000-0  64205-4 0  9997
2 39679  51.6172 330.0299 0168810 221.1719 137.6416 15.07306367413623
Epoch (UTC): 25 October 2021 05:23:32
Eccentricity: 0.0168810
inclination: 51.6172°
perigee height: 427 km
apogee height: 661 km
right ascension of ascending node: 330.0299°
argument of perigee: 221.1719°
revolutions per day: 15.07306367
mean anomaly at epoch: 137.6416°
orbit number at epoch: 41362

The dashed part of the orbit path shows where the satellite is in the earth's shadow,  

DLR